M I D A S
Marine Information and Data Acquisition System
Tripno 976 of the Zeeleeuw from 2005-10-21 06:37:41 to 2005-10-21 11:33:22
Back to CruiseResearch ActivitiesStationsMapUnderway DataData graphs

EquipmentUnitsComment
TimeDGPSUTC
LatitudeDGPSDM.mWGS84
LongitudeDGPSDM.mWGS84
HeadingGyrodeg 
SOGDGPSknotsSpeed over ground
COGDGPSdegCourse over ground
DepthEcho soundermeters200 kHz
Missing or incorrect values are displayed as -999
Navigation data collected by the RV Zeeleeuw from 2005-10-21 06:38:08 to 2005-10-21 11:34:33
                                                                                    Next 1000 lines
Time Latitude Longitude Heading SOG COG Depth
2005-10-21 06:38:17 51°13.602 2°56.095 110.8 0.8 293 6.2
2005-10-21 06:38:23 51°13.602 2°56.092 110.3 1.2 286 6.4
2005-10-21 06:38:28 51°13.603 2°56.088 110.1 1.6 291 6.5
2005-10-21 06:38:33 51°13.604 2°56.084 110.1 1.9 289 6.8
2005-10-21 06:38:37 51°13.605 2°56.081 110.1 2.1 291 -999
2005-10-21 06:38:43 51°13.606 2°56.075 110.5 2.2 290 -999
2005-10-21 06:38:49 51°13.607 2°56.069 111 2.4 292 -999
2005-10-21 06:38:53 51°13.608 2°56.064 111 2.6 292 -999
2005-10-21 06:38:58 51°13.61 2°56.059 111 2.8 292 -999
2005-10-21 06:39:03 51°13.611 2°56.053 111 2.9 291 -999
2005-10-21 06:39:08 51°13.613 2°56.046 110.9 3.1 290 -999
2005-10-21 06:39:13 51°13.615 2°56.039 110.4 3.3 289 -999
2005-10-21 06:39:17 51°13.616 2°56.033 109.9 3.5 288 -999
2005-10-21 06:39:23 51°13.618 2°56.024 109.5 3.6 288 -999
2005-10-21 06:39:28 51°13.619 2°56.017 109.5 3.4 286 -999
2005-10-21 06:39:33 51°13.62 2°56.01 109 3.2 286 -999
2005-10-21 06:39:38 51°13.621 2°56.005 108.5 2.9 286 -999
2005-10-21 06:39:43 51°13.621 2°56.002 108.5 2.3 287 -999
2005-10-21 06:39:49 51°13.622 2°56 109.4 0.8 286 -999
2005-10-21 06:39:53 51°13.621 2°56 111.6 0.2 288 9.4
2005-10-21 06:39:59 51°13.621 2°56.001 114.9 0.2 132 4.7
2005-10-21 06:40:03 51°13.621 2°56 118.3 0.2 159 9.6
2005-10-21 06:40:08 51°13.622 2°55.999 120.1 0.5 304 4.8
2005-10-21 06:40:13 51°13.623 2°55.996 122.3 1.2 299 9.2
2005-10-21 06:40:17 51°13.624 2°55.994 123.9 1.5 302 9.2
2005-10-21 06:40:23 51°13.625 2°55.989 125.6 2 302 9.4
2005-10-21 06:40:28 51°13.626 2°55.985 126.5 2.4 304 7.4
2005-10-21 06:40:33 51°13.629 2°55.98 127.4 2.5 304 -999
2005-10-21 06:40:37 51°13.631 2°55.976 128.1 3 304 -999
2005-10-21 06:40:43 51°13.634 2°55.968 128.7 3.2 305 -999
2005-10-21 06:40:49 51°13.638 2°55.961 129.1 3.5 306 -999
2005-10-21 06:40:53 51°13.639 2°55.956 129.9 3.7 306 -999
2005-10-21 06:40:58 51°13.641 2°55.95 129.9 3.8 306 -999
2005-10-21 06:41:03 51°13.643 2°55.943 129.8 3.9 307 -999
2005-10-21 06:41:08 51°13.647 2°55.935 129.1 4.1 306 -999
2005-10-21 06:41:13 51°13.65 2°55.928 128.2 4.1 305 -999
2005-10-21 06:41:18 51°13.654 2°55.92 127.4 4.2 305 -999
2005-10-21 06:41:23 51°13.658 2°55.912 126.2 4.3 304 -999
2005-10-21 06:41:28 51°13.662 2°55.903 124.9 4.4 302 -999
2005-10-21 06:41:33 51°13.665 2°55.895 123.3 4.5 302 -999
2005-10-21 06:41:39 51°13.669 2°55.884 122.3 4.5 302 -999
2005-10-21 06:41:43 51°13.672 2°55.877 121.6 4.6 301 -999
2005-10-21 06:41:48 51°13.675 2°55.868 121.3 4.7 302 -999
2005-10-21 06:41:53 51°13.679 2°55.859 120.7 4.8 301 -999
2005-10-21 06:41:59 51°13.683 2°55.848 119.9 4.8 300 -999
2005-10-21 06:42:03 51°13.685 2°55.84 118.3 4.9 299 -999
2005-10-21 06:42:09 51°13.689 2°55.829 116.1 4.9 296 -999
2005-10-21 06:42:13 51°13.691 2°55.821 113.3 4.9 294 -999
2005-10-21 06:42:19 51°13.693 2°55.808 110.7 4.9 291 -999
2005-10-21 06:42:23 51°13.695 2°55.8 107.1 4.8 289 -999
2005-10-21 06:42:29 51°13.697 2°55.789 105 4.6 287 -999
2005-10-21 06:42:33 51°13.698 2°55.783 102.6 3.9 284 -999
2005-10-21 06:42:38 51°13.699 2°55.776 99.8 3.5 282 -999
2005-10-21 06:42:43 51°13.7 2°55.77 96.1 3 280 -999
2005-10-21 06:42:48 51°13.7 2°55.766 92.4 2.2 278 -999
2005-10-21 06:42:53 51°13.701 2°55.762 89.2 1.9 276 14.2
2005-10-21 06:42:58 51°13.701 2°55.76 84.8 1.5 281 14
2005-10-21 06:43:03 51°13.702 2°55.759 80.1 0.8 293 13.9
2005-10-21 06:43:08 51°13.702 2°55.758 76.2 0.5 334 13.8
2005-10-21 06:43:13 51°13.703 2°55.759 71.4 0.5 7 13.7
2005-10-21 06:43:17 51°13.704 2°55.759 65.9 0.7 19 13.8
2005-10-21 06:43:23 51°13.705 2°55.759 60.1 0.7 2 13.6
2005-10-21 06:43:28 51°13.706 2°55.758 55.7 0.7 2 13.6
2005-10-21 06:43:33 51°13.706 2°55.757 51.7 0.4 292 13.9
2005-10-21 06:43:37 51°13.706 2°55.756 47.9 0.6 271 13.4
2005-10-21 06:43:43 51°13.705 2°55.754 44.7 0.9 248 13.7
2005-10-21 06:43:48 51°13.704 2°55.752 41.8 0.9 248 13.7
2005-10-21 06:43:53 51°13.702 2°55.749 39.1 1.4 228 4.8
2005-10-21 06:43:57 51°13.701 2°55.747 36.4 1.7 223 4.7
2005-10-21 06:44:03 51°13.698 2°55.744 33.6 1.7 222 -999
2005-10-21 06:44:08 51°13.696 2°55.742 31.4 1.4 223 -999
2005-10-21 06:44:13 51°13.695 2°55.741 29.7 1 223 -999
2005-10-21 06:44:19 51°13.695 2°55.74 26.5 0.6 241 -999
2005-10-21 06:44:23 51°13.696 2°55.739 22.2 0.3 281 -999
2005-10-21 06:44:28 51°13.697 2°55.738 17.1 0.4 314 -999
2005-10-21 06:44:33 51°13.698 2°55.737 11.6 0.7 337 -999
2005-10-21 06:44:39 51°13.7 2°55.736 5.8 1 340 -999
2005-10-21 06:44:43 51°13.702 2°55.735 359.7 1.6 340 -999
2005-10-21 06:44:48 51°13.705 2°55.734 353.4 2.1 342 -999
2005-10-21 06:44:53 51°13.709 2°55.731 347 2.9 335 -999
2005-10-21 06:44:57 51°13.713 2°55.728 342.4 3.7 335 4.7
2005-10-21 06:45:03 51°13.72 2°55.722 339.6 4.5 332 10.8
2005-10-21 06:45:08 51°13.726 2°55.716 338.5 5.1 333 10.5
2005-10-21 06:45:13 51°13.733 2°55.71 337.8 5.8 331 10
2005-10-21 06:45:18 51°13.741 2°55.703 337.7 6.3 332 9.8
2005-10-21 06:45:23 51°13.75 2°55.695 337.8 6.6 332 9.8
2005-10-21 06:45:28 51°13.758 2°55.688 337.5 7.1 331 9.5
2005-10-21 06:45:33 51°13.768 2°55.68 337.6 7.6 332 9.4
2005-10-21 06:45:38 51°13.778 2°55.671 338 7.9 332 9.5
2005-10-21 06:45:43 51°13.788 2°55.662 337.8 8.1 331 9.5
2005-10-21 06:45:48 51°13.798 2°55.654 337.8 8.4 333 9.8
2005-10-21 06:45:53 51°13.809 2°55.645 338.7 8.7 334 10.2
2005-10-21 06:45:57 51°13.818 2°55.639 339.5 8.9 335 10.1
2005-10-21 06:46:03 51°13.832 2°55.629 339.7 9.1 334 9.9
2005-10-21 06:46:08 51°13.844 2°55.62 340.4 9.3 336 9.8
2005-10-21 06:46:13 51°13.856 2°55.611 340.9 9.4 335 9.8
2005-10-21 06:46:18 51°13.868 2°55.603 340.4 9.4 335 9.7
2005-10-21 06:46:23 51°13.88 2°55.594 340.6 9.6 336 9.6
2005-10-21 06:46:28 51°13.892 2°55.585 341.1 9.7 336 9.4
2005-10-21 06:46:33 51°13.904 2°55.576 341.1 9.7 336 9.3
2005-10-21 06:46:38 51°13.916 2°55.568 340.7 9.5 336 9.3
2005-10-21 06:46:43 51°13.928 2°55.559 340.8 9.5 336 9.8
2005-10-21 06:46:48 51°13.941 2°55.551 341.7 9.7 337 9.4
2005-10-21 06:46:53 51°13.953 2°55.542 341.8 9.8 336 9.6
2005-10-21 06:46:58 51°13.966 2°55.534 341.7 9.9 337 9.6
2005-10-21 06:47:03 51°13.979 2°55.525 341.7 10 337 9.6
2005-10-21 06:47:08 51°13.992 2°55.516 341.4 10 336 9.9
2005-10-21 06:47:13 51°14.005 2°55.508 341.2 10.1 337 10
2005-10-21 06:47:17 51°14.015 2°55.5 341.5 10.1 336 10
2005-10-21 06:47:23 51°14.03 2°55.489 341.1 10.1 336 10
2005-10-21 06:47:28 51°14.043 2°55.479 341.1 10.2 336 10
2005-10-21 06:47:33 51°14.056 2°55.47 341.1 10.2 336 9.6
2005-10-21 06:47:37 51°14.066 2°55.462 340.8 10.2 336 10
2005-10-21 06:47:43 51°14.081 2°55.451 340.7 10.3 336 10
2005-10-21 06:47:48 51°14.094 2°55.44 340.7 10.6 335 10
2005-10-21 06:47:53 51°14.108 2°55.43 340 10.7 334 10
2005-10-21 06:47:57 51°14.119 2°55.421 339.8 10.9 334 10.1
2005-10-21 06:48:03 51°14.135 2°55.407 338.9 11.1 332 10.1
2005-10-21 06:48:08 51°14.149 2°55.395 337.8 11.2 332 10.1
2005-10-21 06:48:13 51°14.163 2°55.383 337.3 11.3 331 10.1
2005-10-21 06:48:17 51°14.173 2°55.373 336.1 11.3 329 10.1
2005-10-21 06:48:23 51°14.19 2°55.357 334.1 11.3 327 10.1
2005-10-21 06:48:28 51°14.203 2°55.343 332.3 11.4 326 10
2005-10-21 06:48:33 51°14.216 2°55.328 330.8 11.5 324 10.1
2005-10-21 06:48:38 51°14.228 2°55.312 329.3 11.5 324 10.1
2005-10-21 06:48:43 51°14.241 2°55.295 327.4 11.7 319 10.1
2005-10-21 06:48:48 51°14.253 2°55.277 324.6 11.8 317 10
2005-10-21 06:48:53 51°14.264 2°55.257 321.3 12.1 314 10
2005-10-21 06:48:57 51°14.273 2°55.241 319.3 12.2 313 9.9
2005-10-21 06:49:03 51°14.286 2°55.215 316.9 12.4 309 10
2005-10-21 06:49:08 51°14.296 2°55.192 313.4 12.5 305 10.2
2005-10-21 06:49:13 51°14.306 2°55.169 311.7 12.6 306 10.1
2005-10-21 06:49:17 51°14.314 2°55.15 310.2 12.7 303 10.2
2005-10-21 06:49:23 51°14.325 2°55.121 307.4 12.8 300 10.3
2005-10-21 06:49:28 51°14.334 2°55.097 306.6 12.8 301 10.3
2005-10-21 06:49:33 51°14.342 2°55.071 305.7 12.9 298 10.3
2005-10-21 06:49:38 51°14.349 2°55.045 303 12.9 296 10.3
2005-10-21 06:49:43 51°14.356 2°55.019 299.9 12.9 294 9.8
2005-10-21 06:49:48 51°14.362 2°54.992 297.6 12.9 291 9.1
2005-10-21 06:49:53 51°14.368 2°54.966 296.6 12.9 290 9
2005-10-21 06:49:58 51°14.374 2°54.938 296.1 12.9 289 9.2
2005-10-21 06:50:03 51°14.379 2°54.911 294.9 13 288 9.3
2005-10-21 06:50:08 51°14.385 2°54.883 294.4 13.2 288 9.5
2005-10-21 06:50:13 51°14.391 2°54.854 294.6 13.4 288 9.4
2005-10-21 06:50:18 51°14.396 2°54.826 294.6 13.4 287 9.5
2005-10-21 06:50:23 51°14.401 2°54.797 294.2 13.6 286 9.7
2005-10-21 06:50:28 51°14.406 2°54.768 293.7 13.7 286 9.7
2005-10-21 06:50:33 51°14.412 2°54.738 293.4 13.7 286 9.7
2005-10-21 06:50:37 51°14.416 2°54.715 293.3 13.8 286 9.7
2005-10-21 06:50:43 51°14.423 2°54.68 293.3 13.8 287 9.8
2005-10-21 06:50:48 51°14.428 2°54.651 293.9 13.8 287 9.8
2005-10-21 06:50:53 51°14.434 2°54.621 294.2 13.8 286 9.8
2005-10-21 06:50:57 51°14.438 2°54.597 294.4 13.9 286 9.8
2005-10-21 06:51:03 51°14.444 2°54.562 293.5 14 285 9.9
2005-10-21 06:51:08 51°14.448 2°54.532 292.8 14 285 9.8
2005-10-21 06:51:13 51°14.453 2°54.502 291.9 14 283 9.8
2005-10-21 06:51:17 51°14.457 2°54.478 291.2 13.9 284 9.8
2005-10-21 06:51:23 51°14.462 2°54.442 290.6 13.9 283 9.8
2005-10-21 06:51:28 51°14.466 2°54.412 290.2 13.9 283 10
2005-10-21 06:51:33 51°14.47 2°54.382 290 13.9 282 9.8
2005-10-21 06:51:37 51°14.473 2°54.358 289 13.9 281 9.8
2005-10-21 06:51:43 51°14.477 2°54.322 288.3 13.9 281 9.8
2005-10-21 06:51:48 51°14.48 2°54.292 287.4 13.9 281 9.8
2005-10-21 06:51:53 51°14.482 2°54.262 286.1 13.8 278 9.8
2005-10-21 06:51:57 51°14.482 2°54.237 283.3 13.8 274 10
2005-10-21 06:52:03 51°14.482 2°54.201 279.5 13.8 271 9.7
2005-10-21 06:52:08 51°14.482 2°54.171 276.6 13.7 268 9.5
2005-10-21 06:52:13 51°14.48 2°54.141 273.9 13.7 266 9.5
2005-10-21 06:52:17 51°14.478 2°54.117 271.5 13.6 264 9.5
2005-10-21 06:52:23 51°14.474 2°54.082 268.6 13.5 259 9.5
2005-10-21 06:52:28 51°14.467 2°54.053 263.3 13.5 259 9.4
2005-10-21 06:52:33 51°14.461 2°54.026 257.4 13.5 250 9.5
2005-10-21 06:52:37 51°14.454 2°54.004 253.7 13.5 247 9.5
2005-10-21 06:52:43 51°14.445 2°53.971 250.1 13.5 246 9.4
2005-10-21 06:52:48 51°14.437 2°53.944 248.4 13.5 244 9.4
2005-10-21 06:52:53 51°14.428 2°53.918 247.3 13.6 243 9.5
2005-10-21 06:52:57 51°14.421 2°53.896 245.9 13.6 242 9.4
2005-10-21 06:53:03 51°14.41 2°53.865 244.8 13.6 242 9.5
2005-10-21 06:53:08 51°14.401 2°53.838 244.1 13.6 241 9.4
2005-10-21 06:53:13 51°14.391 2°53.812 243.5 13.7 240 9.4
2005-10-21 06:53:18 51°14.382 2°53.786 243.4 13.7 240 9.4
2005-10-21 06:53:23 51°14.372 2°53.76 242.7 13.7 238 9.5
2005-10-21 06:53:28 51°14.361 2°53.735 241.3 13.7 237 9.5
2005-10-21 06:53:33 51°14.351 2°53.71 239.8 13.6 235 9.5
2005-10-21 06:53:37 51°14.342 2°53.69 238.1 13.7 235 9.4
2005-10-21 06:53:43 51°14.328 2°53.661 236.6 13.7 233 9.4
2005-10-21 06:53:48 51°14.316 2°53.638 235.9 13.7 233 9.4
2005-10-21 06:53:53 51°14.304 2°53.614 234.5 13.6 231 9.4
2005-10-21 06:53:57 51°14.295 2°53.596 233.2 13.7 231 9.4
2005-10-21 06:54:03 51°14.279 2°53.57 232.1 13.5 228 9.4
2005-10-21 06:54:08 51°14.266 2°53.548 229.5 13.6 226 9.4
2005-10-21 06:54:13 51°14.252 2°53.529 227.9 13.6 223 9.4
2005-10-21 06:54:17 51°14.241 2°53.512 225 13.6 222 9.4
2005-10-21 06:54:23 51°14.223 2°53.489 223.2 13.6 221 9.4
2005-10-21 06:54:28 51°14.209 2°53.47 222 13.6 220 9.4
2005-10-21 06:54:33 51°14.194 2°53.451 221.3 13.5 219 9.4
2005-10-21 06:54:38 51°14.179 2°53.433 220.2 13.5 218 9.4
2005-10-21 06:54:43 51°14.164 2°53.415 219.3 13.5 217 9.4
2005-10-21 06:54:48 51°14.149 2°53.397 218.4 13.6 217 9.4
2005-10-21 06:54:53 51°14.134 2°53.38 217.4 13.6 215 9.5
2005-10-21 06:54:57 51°14.121 2°53.366 216.5 13.6 216 9.5
2005-10-21 06:55:03 51°14.103 2°53.346 216.1 13.5 215 9.5
2005-10-21 06:55:08 51°14.087 2°53.329 215.6 13.6 214 9.4
2005-10-21 06:55:13 51°14.071 2°53.313 215.3 13.6 213 9.4
2005-10-21 06:55:18 51°14.055 2°53.298 214.1 13.6 213 9.4
2005-10-21 06:55:23 51°14.039 2°53.283 212.1 13.5 210 9.4
2005-10-21 06:55:28 51°14.022 2°53.269 210.8 13.5 209 9.4
2005-10-21 06:55:33 51°14.006 2°53.254 209.6 13.5 208 9.3
2005-10-21 06:55:38 51°13.989 2°53.241 208.6 13.5 207 9.3
2005-10-21 06:55:43 51°13.973 2°53.227 208.2 13.6 208 9.3
2005-10-21 06:55:48 51°13.956 2°53.214 207.6 13.5 206 9.2
2005-10-21 06:55:53 51°13.939 2°53.202 207.1 13.5 206 9.3
2005-10-21 06:55:58 51°13.922 2°53.189 206.3 13.5 205 9.2
2005-10-21 06:56:03 51°13.905 2°53.176 205.7 13.5 205 9.1
2005-10-21 06:56:08 51°13.888 2°53.164 205.3 13.5 204 9.2
2005-10-21 06:56:13 51°13.871 2°53.152 205.1 13.5 205 9
2005-10-21 06:56:18 51°13.854 2°53.139 205 13.5 205 9
2005-10-21 06:56:23 51°13.837 2°53.125 205.7 13.6 207 9
2005-10-21 06:56:28 51°13.821 2°53.111 207.6 13.6 209 8.9
2005-10-21 06:56:33 51°13.805 2°53.095 209.3 13.6 210 9
2005-10-21 06:56:38 51°13.789 2°53.079 210.8 13.6 210 9
2005-10-21 06:56:43 51°13.773 2°53.062 212.7 13.6 213 8.9
2005-10-21 06:56:48 51°13.758 2°53.044 213.8 13.6 215 8.9
2005-10-21 06:56:53 51°13.743 2°53.025 217.2 13.7 219 8.9
2005-10-21 06:56:58 51°13.729 2°53.004 220.3 13.7 221 8.9
2005-10-21 06:57:03 51°13.716 2°52.982 223.2 13.8 226 8.9
2005-10-21 06:57:08 51°13.703 2°52.959 227.9 13.8 226 9
2005-10-21 06:57:13 51°13.691 2°52.936 230.1 13.8 230 8.9
2005-10-21 06:57:17 51°13.682 2°52.917 232.6 13.8 231 8.9
2005-10-21 06:57:23 51°13.668 2°52.888 234.6 13.8 232 9
2005-10-21 06:57:28 51°13.657 2°52.862 235.9 13.8 234 9
2005-10-21 06:57:33 51°13.646 2°52.837 237.9 13.9 236 9
2005-10-21 06:57:37 51°13.637 2°52.816 238.8 13.9 236 9
2005-10-21 06:57:43 51°13.625 2°52.785 240.2 14 238 9
2005-10-21 06:57:48 51°13.615 2°52.759 241.6 13.9 239 9
2005-10-21 06:57:53 51°13.606 2°52.732 242.4 14 240 9.1
2005-10-21 06:57:58 51°13.596 2°52.705 243.8 13.9 240 9
2005-10-21 06:58:03 51°13.587 2°52.678 244.4 13.9 241 9.1
2005-10-21 06:58:08 51°13.577 2°52.652 244.5 13.9 240 9
2005-10-21 06:58:13 51°13.568 2°52.625 244.5 14 240 9.2
2005-10-21 06:58:18 51°13.558 2°52.598 244.5 14 240 9.1
2005-10-21 06:58:23 51°13.548 2°52.571 244.1 14 239 9.1
2005-10-21 06:58:28 51°13.538 2°52.545 243.7 14 240 9.1
2005-10-21 06:58:33 51°13.528 2°52.519 243.4 14 239 9.1
2005-10-21 06:58:38 51°13.518 2°52.492 242.5 14 238 9.1
2005-10-21 06:58:43 51°13.507 2°52.466 242.1 14 238 9.1
2005-10-21 06:58:48 51°13.497 2°52.44 241.6 14 238 9.1
2005-10-21 06:58:53 51°13.486 2°52.414 241.1 14 237 9.1
2005-10-21 06:58:57 51°13.478 2°52.393 240.9 14 238 9.1
2005-10-21 06:59:03 51°13.467 2°52.361 241.8 14 240 9
2005-10-21 06:59:08 51°13.457 2°52.334 243.4 14 240 9.1
2005-10-21 06:59:13 51°13.448 2°52.307 244.5 14 242 9.1
2005-10-21 06:59:18 51°13.439 2°52.279 246.1 14 242 9.1
2005-10-21 06:59:23 51°13.431 2°52.252 246.9 13.9 243 9.1
2005-10-21 06:59:28 51°13.422 2°52.224 247.5 13.9 243 9.1
2005-10-21 06:59:33 51°13.413 2°52.197 247.7 13.9 243 9.1
2005-10-21 06:59:38 51°13.404 2°52.169 247.6 13.9 243 9.1
2005-10-21 06:59:43 51°13.395 2°52.142 247 14 242 9.1
2005-10-21 06:59:48 51°13.386 2°52.115 246.8 13.9 242 9.2
2005-10-21 06:59:53 51°13.377 2°52.088 245.8 13.9 241 9.2
2005-10-21 06:59:57 51°13.369 2°52.067 245.3 13.9 241 9.2
2005-10-21 07:00:03 51°13.358 2°52.035 245.3 14 240 9.2
2005-10-21 07:00:08 51°13.348 2°52.008 245 13.9 241 9.2
2005-10-21 07:00:13 51°13.338 2°51.981 244.5 13.9 240 9.2
2005-10-21 07:00:17 51°13.331 2°51.96 244.3 13.9 240 9.2
2005-10-21 07:00:23 51°13.319 2°51.928 244.1 13.9 240 9.2
2005-10-21 07:00:28 51°13.31 2°51.901 244.4 13.9 241 9.1
2005-10-21 07:00:33 51°13.301 2°51.875 244.6 13.9 241 9.2
2005-10-21 07:00:37 51°13.293 2°51.853 245 13.9 241 9.2
2005-10-21 07:00:43 51°13.282 2°51.82 245.6 13.9 242 9.2
2005-10-21 07:00:48 51°13.273 2°51.794 246.2 13.9 242 9.2
2005-10-21 07:00:53 51°13.264 2°51.766 246.5 13.8 243 9.2
2005-10-21 07:00:57 51°13.257 2°51.745 247 13.8 243 9.2
2005-10-21 07:01:03 51°13.247 2°51.712 247 13.9 242 9.2
2005-10-21 07:01:08 51°13.238 2°51.685 246.8 13.9 242 9.1
2005-10-21 07:01:13 51°13.228 2°51.658 246.7 13.8 242 9.2
2005-10-21 07:01:17 51°13.221 2°51.637 246.3 13.9 242 9.2
2005-10-21 07:01:23 51°13.21 2°51.605 246 13.8 241 9.2
2005-10-21 07:01:28 51°13.2 2°51.579 245.3 13.8 241 9.2
2005-10-21 07:01:33 51°13.191 2°51.552 245 13.8 240 9.2
2005-10-21 07:01:37 51°13.183 2°51.531 244.8 13.8 240 9.2
2005-10-21 07:01:41 51°13.176 2°51.51 244.3 13.8 240 9.2
2005-10-21 07:01:48 51°13.162 2°51.473 244.1 13.8 240 9.2
2005-10-21 07:01:53 51°13.153 2°51.447 244.7 13.7 241 9.2
2005-10-21 07:01:58 51°13.144 2°51.42 245.2 13.7 241 9.2
2005-10-21 07:02:03 51°13.135 2°51.393 245.8 13.7 242 9.2
2005-10-21 07:02:08 51°13.127 2°51.366 246.5 13.8 243 9.2
2005-10-21 07:02:13 51°13.118 2°51.338 247.5 13.8 243 9.2
2005-10-21 07:02:18 51°13.109 2°51.312 247.6 13.7 243 9.2
2005-10-21 07:02:23 51°13.1 2°51.285 247.3 13.7 243 9.2
2005-10-21 07:02:28 51°13.092 2°51.258 247 13.7 242 9.2
2005-10-21 07:02:33 51°13.084 2°51.233 246.6 13.7 242 9.2
2005-10-21 07:02:38 51°13.075 2°51.207 246 13.7 241 9.2
2005-10-21 07:02:43 51°13.064 2°51.177 244.9 13.7 241 9.2
2005-10-21 07:02:48 51°13.053 2°51.148 244.7 13.8 241 9.2
2005-10-21 07:02:53 51°13.044 2°51.121 244.9 13.8 241 9.2
2005-10-21 07:02:57 51°13.036 2°51.099 245.2 13.8 241 9.3
2005-10-21 07:03:03 51°13.025 2°51.067 245.4 13.8 241 9.2
2005-10-21 07:03:08 51°13.016 2°51.041 245.3 13.8 241 9.3
2005-10-21 07:03:13 51°13.006 2°51.014 245.8 13.9 241 9.3
2005-10-21 07:03:17 51°12.999 2°50.992 246 13.8 242 9.3
2005-10-21 07:03:23 51°12.988 2°50.96 246.1 13.8 242 9.4
2005-10-21 07:03:28 51°12.979 2°50.933 246.3 13.9 242 9.3
2005-10-21 07:03:33 51°12.97 2°50.905 246.6 13.8 242 9.3
2005-10-21 07:03:37 51°12.963 2°50.887 246.5 13.8 242 9.4
2005-10-21 07:03:43 51°12.952 2°50.856 246.4 13.8 242 9.4
2005-10-21 07:03:48 51°12.943 2°50.829 245.8 13.8 241 9.4
2005-10-21 07:03:53 51°12.934 2°50.802 245.3 13.8 241 9.4
2005-10-21 07:03:58 51°12.924 2°50.776 244.9 13.8 240 9.4
2005-10-21 07:04:03 51°12.915 2°50.75 244.5 13.8 240 9.4
2005-10-21 07:04:08 51°12.905 2°50.723 244.5 13.8 240 9.4
2005-10-21 07:04:13 51°12.895 2°50.697 244.4 13.8 240 9.4
2005-10-21 07:04:17 51°12.888 2°50.676 244.3 13.8 240 9.4
2005-10-21 07:04:23 51°12.876 2°50.644 244.1 13.8 240 9.3
2005-10-21 07:04:28 51°12.867 2°50.617 244.5 13.8 240 9.3
2005-10-21 07:04:33 51°12.858 2°50.589 245.4 13.9 242 9.4
2005-10-21 07:04:38 51°12.849 2°50.562 246.6 14 242 9.4
2005-10-21 07:04:43 51°12.84 2°50.535 247.1 13.9 243 9.4
2005-10-21 07:04:48 51°12.831 2°50.508 247.5 13.9 243 9.3
2005-10-21 07:04:53 51°12.823 2°50.481 247.7 13.9 242 9.4
2005-10-21 07:04:57 51°12.816 2°50.459 247.8 13.9 243 9.4
2005-10-21 07:05:03 51°12.805 2°50.427 247.5 13.9 242 9.3
2005-10-21 07:05:08 51°12.796 2°50.4 247 13.9 242 9.4
2005-10-21 07:05:13 51°12.787 2°50.373 246.7 13.8 242 9.4
2005-10-21 07:05:17 51°12.78 2°50.351 246 13.8 241 9.3
2005-10-21 07:05:23 51°12.768 2°50.319 245.3 13.8 241 9.4
2005-10-21 07:05:28 51°12.758 2°50.293 245.3 13.8 241 9.3
2005-10-21 07:05:33 51°12.75 2°50.266 245.1 13.8 241 9.3
2005-10-21 07:05:37 51°12.742 2°50.244 245.2 13.8 241 9.3
2005-10-21 07:05:43 51°12.732 2°50.211 245.6 14 242 9.3
2005-10-21 07:05:48 51°12.723 2°50.185 246.5 13.9 242 9.4
2005-10-21 07:05:53 51°12.714 2°50.157 246.9 13.9 243 9.4
2005-10-21 07:05:57 51°12.707 2°50.135 247.3 13.9 243 9.3
2005-10-21 07:06:03 51°12.697 2°50.102 247.5 13.9 243 9.4
2005-10-21 07:06:08 51°12.688 2°50.075 247.8 13.9 243 9.4
2005-10-21 07:06:13 51°12.679 2°50.048 247.5 13.9 243 9.4
2005-10-21 07:06:17 51°12.672 2°50.026 247.2 13.9 242 9.4
2005-10-21 07:06:23 51°12.661 2°49.994 247 13.8 242 9.3
2005-10-21 07:06:28 51°12.651 2°49.967 246.4 13.9 241 9.4
2005-10-21 07:06:33 51°12.642 2°49.94 245.6 13.9 241 9.3
2005-10-21 07:06:38 51°12.633 2°49.913 245.7 13.9 242 9.4
2005-10-21 07:06:43 51°12.624 2°49.886 245.9 13.9 242 9.3
2005-10-21 07:06:48 51°12.616 2°49.858 246.5 13.9 243 9.4
2005-10-21 07:06:53 51°12.607 2°49.831 247.2 13.9 243 9.3
2005-10-21 07:06:57 51°12.6 2°49.809 247.4 13.9 243 9.4
2005-10-21 07:07:03 51°12.589 2°49.776 247.7 13.9 243 9.4
2005-10-21 07:07:08 51°12.581 2°49.749 247.6 13.9 243 9.4
2005-10-21 07:07:13 51°12.572 2°49.722 247.3 13.9 243 9.4
2005-10-21 07:07:17 51°12.564 2°49.7 246.9 13.9 242 9.4
2005-10-21 07:07:23 51°12.554 2°49.667 246.5 13.9 242 9.5
2005-10-21 07:07:28 51°12.544 2°49.641 246.1 13.9 242 9.4
2005-10-21 07:07:33 51°12.535 2°49.614 245.7 13.9 242 9.5
2005-10-21 07:07:37 51°12.528 2°49.592 245.7 13.9 241 9.4
2005-10-21 07:07:43 51°12.517 2°49.56 245.3 13.9 242 9.5
2005-10-21 07:07:48 51°12.508 2°49.533 245.7 13.9 242 9.5
2005-10-21 07:07:53 51°12.499 2°49.506 246.1 13.9 243 9.5
2005-10-21 07:07:57 51°12.492 2°49.484 246.7 13.9 243 9.4
2005-10-21 07:08:03 51°12.482 2°49.451 246.8 13.9 243 9.5
2005-10-21 07:08:08 51°12.473 2°49.424 247 13.9 243 9.5
2005-10-21 07:08:13 51°12.464 2°49.396 247.2 13.9 243 9.5
2005-10-21 07:08:17 51°12.457 2°49.374 247.2 13.9 243 9.5
2005-10-21 07:08:23 51°12.447 2°49.342 247.4 13.9 243 9.6
2005-10-21 07:08:28 51°12.438 2°49.314 247.2 13.9 243 9.5
2005-10-21 07:08:33 51°12.429 2°49.287 246.9 13.9 242 9.5
2005-10-21 07:08:38 51°12.42 2°49.26 246.6 13.9 242 9.5
2005-10-21 07:08:43 51°12.411 2°49.233 246.4 13.9 242 9.5
2005-10-21 07:08:48 51°12.402 2°49.206 246 14 242 9.5
2005-10-21 07:08:53 51°12.393 2°49.179 245.8 14 242 9.5
2005-10-21 07:08:57 51°12.386 2°49.157 246.3 14 242 9.5
2005-10-21 07:09:03 51°12.375 2°49.124 246.5 14 242 9.5
2005-10-21 07:09:08 51°12.366 2°49.097 246.8 14 243 9.5
2005-10-21 07:09:13 51°12.357 2°49.069 247.2 14 243 9.6
2005-10-21 07:09:17 51°12.35 2°49.047 247.2 13.9 243 9.6
2005-10-21 07:09:23 51°12.339 2°49.015 246.8 14 242 9.6
2005-10-21 07:09:28 51°12.33 2°48.987 246.5 14 242 9.5
2005-10-21 07:09:33 51°12.321 2°48.96 246.1 14 241 9.5
2005-10-21 07:09:38 51°12.311 2°48.933 245.7 14 241 9.6
2005-10-21 07:09:43 51°12.302 2°48.906 245.3 14 241 9.6
2005-10-21 07:09:48 51°12.293 2°48.879 245.3 13.9 242 9.6
2005-10-21 07:09:53 51°12.284 2°48.852 245.4 14 242 9.6
2005-10-21 07:09:57 51°12.276 2°48.83 245.8 14 242 9.6
2005-10-21 07:10:03 51°12.266 2°48.797 246.2 14 243 9.7
2005-10-21 07:10:08 51°12.257 2°48.77 246.8 14 243 9.6
2005-10-21 07:10:13 51°12.248 2°48.742 246.9 14 243 9.6
2005-10-21 07:10:17 51°12.241 2°48.72 247.3 14 243 9.7
2005-10-21 07:10:23 51°12.23 2°48.687 247.3 14 243 9.7
2005-10-21 07:10:28 51°12.222 2°48.66 247.3 14 243 9.7
2005-10-21 07:10:33 51°12.213 2°48.633 247.2 14 243 9.7
2005-10-21 07:10:38 51°12.203 2°48.605 246.7 14 242 9.7
2005-10-21 07:10:43 51°12.194 2°48.578 246.2 14 242 9.7
2005-10-21 07:10:48 51°12.185 2°48.552 245.8 13.9 241 9.7
2005-10-21 07:10:53 51°12.175 2°48.524 245.2 14 242 9.7
2005-10-21 07:10:58 51°12.166 2°48.497 245.2 14 241 9.6
2005-10-21 07:11:03 51°12.157 2°48.47 245.3 13.9 242 9.7
2005-10-21 07:11:08 51°12.148 2°48.443 245.5 14 242 9.7
2005-10-21 07:11:13 51°12.139 2°48.415 246.2 14 243 9.7
2005-10-21 07:11:18 51°12.13 2°48.387 246.5 14 243 9.7
2005-10-21 07:11:23 51°12.121 2°48.36 246.9 14 243 9.7
2005-10-21 07:11:28 51°12.113 2°48.332 247.5 13.9 244 9.7
2005-10-21 07:11:33 51°12.104 2°48.305 247.6 14 243 9.7
2005-10-21 07:11:38 51°12.095 2°48.277 247.5 14 243 9.7
2005-10-21 07:11:43 51°12.086 2°48.25 247 14 242 9.7
2005-10-21 07:11:48 51°12.077 2°48.222 246.7 14 242 9.7
2005-10-21 07:11:53 51°12.068 2°48.195 246 14 242 9.7
2005-10-21 07:11:58 51°12.059 2°48.168 245.6 14 241 9.7
2005-10-21 07:12:03 51°12.049 2°48.141 245.5 14 242 9.7
2005-10-21 07:12:08 51°12.04 2°48.113 245.9 14 242 9.7
2005-10-21 07:12:13 51°12.031 2°48.086 246.1 14.1 243 9.7
2005-10-21 07:12:17 51°12.025 2°48.063 246.7 14 243 9.7
2005-10-21 07:12:23 51°12.014 2°48.03 247 13.9 243 9.7
2005-10-21 07:12:28 51°12.006 2°48.002 247.5 14 244 9.6
2005-10-21 07:12:33 51°11.997 2°47.975 248.3 14.1 244 9.7
2005-10-21 07:12:37 51°11.991 2°47.952 248.6 14 245 9.7
2005-10-21 07:12:43 51°11.981 2°47.918 248.9 14 245 9.7
2005-10-21 07:12:48 51°11.973 2°47.89 249.3 14 245 9.7
2005-10-21 07:12:53 51°11.965 2°47.862 249.3 14 245 9.8
2005-10-21 07:12:57 51°11.958 2°47.84 249.2 14 245 9.7
2005-10-21 07:13:03 51°11.948 2°47.806 248.9 14.1 245 9.7
2005-10-21 07:13:08 51°11.94 2°47.778 248.9 14.1 245 9.7
2005-10-21 07:13:13 51°11.931 2°47.75 248.4 14 244 9.7
2005-10-21 07:13:17 51°11.925 2°47.728 248.3 14 245 9.7
2005-10-21 07:13:23 51°11.915 2°47.694 248.4 14 245 9.7
2005-10-21 07:13:28 51°11.906 2°47.666 248.7 14 245 9.7
2005-10-21 07:13:33 51°11.898 2°47.638 249 14 245 9.7
2005-10-21 07:13:37 51°11.892 2°47.615 249 14 245 9.7
2005-10-21 07:13:43 51°11.882 2°47.582 249 14 245 9.7
2005-10-21 07:13:48 51°11.874 2°47.554 248.9 14.1 245 9.7
2005-10-21 07:13:53 51°11.865 2°47.526 248.7 14 244 9.7
2005-10-21 07:13:57 51°11.858 2°47.504 248 14 244 9.7
2005-10-21 07:14:03 51°11.848 2°47.47 247.6 14 244 9.7
2005-10-21 07:14:08 51°11.839 2°47.442 247.5 14.1 244 9.7
2005-10-21 07:14:13 51°11.831 2°47.414 247.7 14.1 244 9.6
2005-10-21 07:14:17 51°11.824 2°47.392 248.2 14.1 245 9.7
2005-10-21 07:14:23 51°11.815 2°47.358 248.6 14 245 9.7
2005-10-21 07:14:28 51°11.806 2°47.329 248.9 14 245 9.6
2005-10-21 07:14:33 51°11.798 2°47.301 249.2 14 246 9.7
2005-10-21 07:14:37 51°11.792 2°47.279 249.4 14 246 9.6
2005-10-21 07:14:43 51°11.782 2°47.245 249.6 14 245 9.7
2005-10-21 07:14:48 51°11.774 2°47.217 249.4 14 246 9.6
2005-10-21 07:14:53 51°11.766 2°47.189 249 14 245 9.6
2005-10-21 07:14:57 51°11.76 2°47.166 248.8 14 246 9.6
2005-10-21 07:15:03 51°11.75 2°47.132 249.4 14.1 246 9.6
2005-10-21 07:15:08 51°11.743 2°47.103 250.4 14 248 9.6
2005-10-21 07:15:13 51°11.736 2°47.075 251.8 14 248 9.6
2005-10-21 07:15:18 51°11.729 2°47.046 252.5 14 249 9.6
2005-10-21 07:15:23 51°11.722 2°47.016 253.2 14 249 9.6
2005-10-21 07:15:28 51°11.715 2°46.988 253.3 14 249 9.6
2005-10-21 07:15:33 51°11.708 2°46.959 253.3 14 249 9.7
2005-10-21 07:15:38 51°11.701 2°46.93 253.1 14.1 249 9.7
2005-10-21 07:15:41 51°11.697 2°46.913 252.8 14.1 248 9.7
2005-10-21 07:15:48 51°11.687 2°46.872 252.3 14.1 248 9.7
2005-10-21 07:15:53 51°11.679 2°46.843 252.1 14 248 9.7
2005-10-21 07:15:58 51°11.672 2°46.815 251.8 14 247 9.7
2005-10-21 07:16:03 51°11.664 2°46.786 251.3 14.1 247 9.8
2005-10-21 07:16:08 51°11.657 2°46.757 251.3 14 248 9.7
2005-10-21 07:16:13 51°11.649 2°46.729 251.3 14.1 247 9.8
2005-10-21 07:16:18 51°11.642 2°46.7 251.3 14.1 248 9.8
2005-10-21 07:16:23 51°11.634 2°46.671 251.5 14.1 248 9.8
2005-10-21 07:16:28 51°11.627 2°46.642 251.8 14.1 249 9.8
2005-10-21 07:16:33 51°11.62 2°46.613 252.3 14.2 248 9.9
2005-10-21 07:16:38 51°11.613 2°46.584 252.6 14.2 249 9.9
2005-10-21 07:16:43 51°11.606 2°46.555 253.2 14.1 249 10
2005-10-21 07:16:48 51°11.599 2°46.525 253.2 14.1 250 10
2005-10-21 07:16:53 51°11.592 2°46.496 253.2 14.1 249 10
2005-10-21 07:16:57 51°11.587 2°46.473 253.2 14.1 249 10
2005-10-21 07:17:03 51°11.578 2°46.438 252.8 14.1 249 10.1
2005-10-21 07:17:08 51°11.571 2°46.409 252.4 14.1 248 10.1
2005-10-21 07:17:13 51°11.564 2°46.38 252.1 14.1 248 10.1
2005-10-21 07:17:17 51°11.558 2°46.357 251.8 14.1 248 10.2
2005-10-21 07:17:23 51°11.549 2°46.322 252.1 14.1 249 10.2
2005-10-21 07:17:28 51°11.542 2°46.293 252.3 14.1 249 10.2
2005-10-21 07:17:33 51°11.535 2°46.264 252.4 14.1 248 10.2
2005-10-21 07:17:37 51°11.529 2°46.241 252.4 14.1 249 10.2
2005-10-21 07:17:43 51°11.52 2°46.206 252.2 14.1 248 10.2
2005-10-21 07:17:48 51°11.513 2°46.177 252 14.1 248 10.2
2005-10-21 07:17:53 51°11.506 2°46.148 251.8 14.1 248 10.2
2005-10-21 07:17:57 51°11.5 2°46.125 251.5 14.1 248 10.2
2005-10-21 07:18:01 51°11.494 2°46.102 251.8 14.1 249 10.2
2005-10-21 07:18:08 51°11.485 2°46.061 252 14.1 250 10.2
2005-10-21 07:18:13 51°11.479 2°46.032 253.8 14.1 251 10.2
2005-10-21 07:18:17 51°11.474 2°46.008 255 14.1 251 10.2
2005-10-21 07:18:23 51°11.467 2°45.972 255.9 14.1 253 10.2
2005-10-21 07:18:28 51°11.461 2°45.943 256.4 14.1 253 10.2
2005-10-21 07:18:33 51°11.456 2°45.913 257.2 14.1 254 10.2
2005-10-21 07:18:38 51°11.45 2°45.883 257.6 14.1 253 10.2
2005-10-21 07:18:43 51°11.444 2°45.853 257.6 14.1 254 10.3
2005-10-21 07:18:48 51°11.438 2°45.823 257.3 14.1 252 10.3
2005-10-21 07:18:53 51°11.432 2°45.794 256.7 14.1 252 10.3
2005-10-21 07:18:57 51°11.427 2°45.77 256.3 14.1 252 10.4
2005-10-21 07:19:03 51°11.42 2°45.734 255.8 14.1 252 10.4
2005-10-21 07:19:08 51°11.414 2°45.705 255.7 14.1 252 10.4
2005-10-21 07:19:13 51°11.408 2°45.675 255.9 14.1 252 10.5
2005-10-21 07:19:17 51°11.403 2°45.651 256 14.1 252 10.5
2005-10-21 07:19:23 51°11.396 2°45.615 256.1 14.1 252 10.5
2005-10-21 07:19:28 51°11.39 2°45.586 256.3 14.1 253 10.5
2005-10-21 07:19:33 51°11.384 2°45.556 256.3 14.2 252 10.6
2005-10-21 07:19:38 51°11.378 2°45.526 256.3 14.2 252 10.5
2005-10-21 07:19:43 51°11.372 2°45.496 256.3 14.1 252 10.5
2005-10-21 07:19:48 51°11.366 2°45.466 256.1 14.2 252 10.5
2005-10-21 07:19:53 51°11.36 2°45.437 255.9 14.2 252 10.6
2005-10-21 07:19:57 51°11.355 2°45.413 256.2 14.1 252 10.5
2005-10-21 07:20:03 51°11.348 2°45.377 256.4 14.2 253 10.6
2005-10-21 07:20:08 51°11.342 2°45.347 256.7 14.2 253 10.6
2005-10-21 07:20:13 51°11.337 2°45.317 256.7 14.2 253 10.5
2005-10-21 07:20:17 51°11.332 2°45.293 256.8 14.2 253 10.6
2005-10-21 07:20:23 51°11.325 2°45.257 256.8 14.2 253 10.6
2005-10-21 07:20:28 51°11.319 2°45.227 256.7 14.2 253 10.6
2005-10-21 07:20:33 51°11.313 2°45.198 256.7 14.2 253 10.6
2005-10-21 07:20:38 51°11.307 2°45.168 256.5 14.1 253 10.6
2005-10-21 07:20:43 51°11.302 2°45.138 256.3 14.2 252 10.6
2005-10-21 07:20:48 51°11.296 2°45.108 256.2 14.2 252 10.6
2005-10-21 07:20:53 51°11.29 2°45.078 255.9 14.2 252 10.7
2005-10-21 07:20:57 51°11.285 2°45.054 255.9 14.1 252 10.7
2005-10-21 07:21:03 51°11.278 2°45.019 255.7 14.2 252 10.7
2005-10-21 07:21:08 51°11.272 2°44.989 255.9 14.2 253 10.7
2005-10-21 07:21:13 51°11.266 2°44.959 256.3 14.2 253 10.7
2005-10-21 07:21:17 51°11.262 2°44.935 256.8 14.1 253 10.7
2005-10-21 07:21:23 51°11.255 2°44.899 256.8 14.2 253 10.7
2005-10-21 07:21:28 51°11.249 2°44.869 256.9 14.2 253 10.7
2005-10-21 07:21:33 51°11.244 2°44.839 256.9 14.2 253 10.7
2005-10-21 07:21:37 51°11.239 2°44.816 256.7 14.2 253 10.7
2005-10-21 07:21:43 51°11.232 2°44.78 256.2 14.1 252 10.7
2005-10-21 07:21:48 51°11.226 2°44.75 256.1 14.2 253 10.7
2005-10-21 07:21:53 51°11.22 2°44.72 256 14.2 253 10.7
2005-10-21 07:21:57 51°11.216 2°44.696 256.2 14.2 253 10.7
2005-10-21 07:22:01 51°11.211 2°44.672 256.6 14.2 254 10.7
2005-10-21 07:22:08 51°11.204 2°44.63 257.3 14.2 255 10.7
2005-10-21 07:22:13 51°11.199 2°44.6 258.1 14.2 255 10.8
2005-10-21 07:22:17 51°11.195 2°44.575 258.6 14.2 255 10.8
2005-10-21 07:22:23 51°11.189 2°44.539 259 14.2 255 10.8
2005-10-21 07:22:28 51°11.184 2°44.509 259 14.1 255 10.8
2005-10-21 07:22:33 51°11.179 2°44.479 258.8 14.2 255 10.8
2005-10-21 07:22:38 51°11.174 2°44.448 258.5 14.2 255 10.8
2005-10-21 07:22:43 51°11.168 2°44.418 258.3 14.2 254 10.8
2005-10-21 07:22:48 51°11.163 2°44.388 257.9 14.2 254 10.7
2005-10-21 07:22:53 51°11.158 2°44.358 257.9 14.2 255 10.8
2005-10-21 07:22:57 51°11.154 2°44.334 258.2 14.2 255 10.8
2005-10-21 07:23:03 51°11.148 2°44.298 258.4 14.2 255 10.8
2005-10-21 07:23:08 51°11.143 2°44.267 258.8 14.2 255 10.9
2005-10-21 07:23:13 51°11.138 2°44.237 258.8 14.2 256 10.9
2005-10-21 07:23:17 51°11.134 2°44.213 259 14.2 256 10.9
2005-10-21 07:23:23 51°11.128 2°44.176 259.1 14.2 256 10.9
2005-10-21 07:23:28 51°11.123 2°44.146 259.1 14.2 256 10.9
2005-10-21 07:23:33 51°11.118 2°44.116 258.7 14.2 255 10.9
2005-10-21 07:23:38 51°11.113 2°44.086 258.7 14.2 255 10.9
2005-10-21 07:23:43 51°11.108 2°44.055 258.3 14.2 255 11
2005-10-21 07:23:48 51°11.103 2°44.025 258.3 14.2 255 11
2005-10-21 07:23:53 51°11.098 2°43.995 258.3 14.2 255 11
2005-10-21 07:23:57 51°11.094 2°43.971 258.1 14.2 255 11
2005-10-21 07:24:03 51°11.088 2°43.935 258.1 14.2 255 11
2005-10-21 07:24:08 51°11.082 2°43.905 258.1 14.2 255 11
2005-10-21 07:24:13 51°11.077 2°43.875 258.1 14.1 255 11
2005-10-21 07:24:17 51°11.073 2°43.85 257.8 14.2 255 11
2005-10-21 07:24:23 51°11.067 2°43.814 258 14.2 255 11.1
2005-10-21 07:24:28 51°11.062 2°43.784 258.3 14.2 255 11
2005-10-21 07:24:33 51°11.057 2°43.754 258.4 14.2 255 11.1
2005-10-21 07:24:37 51°11.053 2°43.73 258.4 14.1 255 11.1
2005-10-21 07:24:43 51°11.047 2°43.694 258.4 14.1 255 11.1
2005-10-21 07:24:48 51°11.042 2°43.663 258.3 14.1 255 11
2005-10-21 07:24:53 51°11.036 2°43.633 257.8 14.2 255 11.1
2005-10-21 07:24:57 51°11.032 2°43.609 257.9 14.1 255 11.1
2005-10-21 07:25:03 51°11.026 2°43.573 258.2 14.1 255 11.1
2005-10-21 07:25:08 51°11.021 2°43.543 258.2 14.2 255 11.1
2005-10-21 07:25:13 51°11.016 2°43.513 258.3 14.1 255 11.1
2005-10-21 07:25:17 51°11.012 2°43.488 258.5 14.1 255 11.1
2005-10-21 07:25:23 51°11.006 2°43.452 258.7 14.1 255 11.2
2005-10-21 07:25:28 51°11.001 2°43.422 258.7 14.1 255 11.1
2005-10-21 07:25:33 51°10.996 2°43.392 258.6 14.2 255 11.2
2005-10-21 07:25:37 51°10.992 2°43.368 258.6 14.1 255 11.1
2005-10-21 07:25:43 51°10.986 2°43.332 258.4 14.1 255 11.2
2005-10-21 07:25:48 51°10.981 2°43.302 258.2 14.1 255 11.2
2005-10-21 07:25:53 51°10.976 2°43.272 258.3 14.1 255 11.2
2005-10-21 07:25:58 51°10.971 2°43.242 258.3 14.1 255 11.1
2005-10-21 07:26:03 51°10.966 2°43.211 258.5 14.1 256 11.1
2005-10-21 07:26:08 51°10.961 2°43.181 258.7 14.1 255 11.2
2005-10-21 07:26:13 51°10.956 2°43.151 258.7 14.1 256 11.2
2005-10-21 07:26:17 51°10.952 2°43.127 258.8 14.1 256 11.2
2005-10-21 07:26:23 51°10.946 2°43.091 258.8 14.1 255 11.2
2005-10-21 07:26:28 51°10.941 2°43.061 258.6 14.1 255 11.3
2005-10-21 07:26:33 51°10.936 2°43.031 258.2 14.1 255 11.2
2005-10-21 07:26:38 51°10.931 2°43.001 258.1 14.1 255 11.2
2005-10-21 07:26:43 51°10.926 2°42.971 258.1 14.1 255 11.2
2005-10-21 07:26:48 51°10.921 2°42.941 257.8 14.1 255 11.2
2005-10-21 07:26:53 51°10.916 2°42.911 257.8 14.1 255 11.2
2005-10-21 07:26:57 51°10.912 2°42.887 257.7 14.1 255 11.2
2005-10-21 07:27:01 51°10.908 2°42.863 257.9 14.1 255 11.2
2005-10-21 07:27:08 51°10.9 2°42.82 257.8 14.1 255 11.3
2005-10-21 07:27:13 51°10.895 2°42.79 257.9 14.1 255 11.2
2005-10-21 07:27:17 51°10.891 2°42.766 257.9 14.1 255 11.3
2005-10-21 07:27:23 51°10.885 2°42.73 258 14.1 255 11.2
2005-10-21 07:27:28 51°10.88 2°42.7 258.1 14.1 255 11.3
2005-10-21 07:27:33 51°10.875 2°42.669 258.3 14.1 255 11.3
2005-10-21 07:27:38 51°10.87 2°42.639 258.3 14.1 255 11.3
2005-10-21 07:27:43 51°10.865 2°42.609 258.3 14.1 255 11.3
2005-10-21 07:27:48 51°10.86 2°42.579 258.2 14.1 255 11.3
2005-10-21 07:27:53 51°10.855 2°42.549 258.1 14.1 256 11.3
2005-10-21 07:27:58 51°10.85 2°42.519 258.3 14.1 255 11.3
2005-10-21 07:28:03 51°10.845 2°42.488 258.3 14.1 256 11.2
2005-10-21 07:28:08 51°10.84 2°42.458 258.5 14.2 255 11.3
2005-10-21 07:28:13 51°10.835 2°42.428 258.4 14.2 255 11.3
2005-10-21 07:28:17 51°10.831 2°42.404 258.4 14.1 255 11.3
2005-10-21 07:28:23 51°10.825 2°42.368 258.3 14.2 255 11.3
2005-10-21 07:28:28 51°10.82 2°42.337 258.1 14.2 255 11.3
2005-10-21 07:28:33 51°10.815 2°42.307 258 14.1 255 11.3
2005-10-21 07:28:37 51°10.811 2°42.283 257.9 14.1 255 11.3
2005-10-21 07:28:43 51°10.805 2°42.247 258 14.2 255 11.4
2005-10-21 07:28:48 51°10.8 2°42.217 258.3 14.1 256 11.3
2005-10-21 07:28:53 51°10.795 2°42.186 258.3 14.2 256 11.3
2005-10-21 07:28:58 51°10.79 2°42.156 258.4 14.2 256 11.3
2005-10-21 07:29:03 51°10.785 2°42.126 258.5 14.2 256 11.4
2005-10-21 07:29:08 51°10.781 2°42.096 258.5 14.2 256 11.3
2005-10-21 07:29:13 51°10.776 2°42.066 258.4 14.2 255 11.3
2005-10-21 07:29:18 51°10.771 2°42.035 258.3 14.2 255 11.4
2005-10-21 07:29:23 51°10.766 2°42.005 258.3 14.2 255 11.4
2005-10-21 07:29:28 51°10.761 2°41.975 258.5 14.2 256 11.4
2005-10-21 07:29:33 51°10.756 2°41.944 258.6 14.2 256 11.4
2005-10-21 07:29:37 51°10.752 2°41.92 258.8 14.2 256 11.4
2005-10-21 07:29:43 51°10.746 2°41.884 258.6 14.1 255 11.4
2005-10-21 07:29:48 51°10.741 2°41.853 258.2 14.2 255 11.5
2005-10-21 07:29:53 51°10.736 2°41.824 258.2 14.2 255 11.4
2005-10-21 07:29:57 51°10.732 2°41.799 258.1 14.2 255 11.4
2005-10-21 07:30:03 51°10.726 2°41.763 258 14.1 255 11.4
2005-10-21 07:30:08 51°10.721 2°41.733 258.1 14.2 255 11.4
2005-10-21 07:30:13 51°10.716 2°41.703 258.1 14.1 255 11.4
2005-10-21 07:30:17 51°10.713 2°41.678 258.2 14.1 256 11.4
2005-10-21 07:30:23 51°10.707 2°41.642 258.3 14.2 256 11.4
2005-10-21 07:30:28 51°10.702 2°41.612 258.3 14.2 256 11.4
2005-10-21 07:30:33 51°10.697 2°41.581 258.5 14.2 256 11.5
2005-10-21 07:30:38 51°10.692 2°41.551 258.9 14.2 256 11.5
2005-10-21 07:30:43 51°10.688 2°41.52 258.9 14.2 256 11.5
2005-10-21 07:30:48 51°10.683 2°41.49 259 14.2 256 11.5
2005-10-21 07:30:53 51°10.678 2°41.46 259 14.2 256 11.5
2005-10-21 07:30:57 51°10.674 2°41.435 258.5 14.2 255 11.5
2005-10-21 07:31:03 51°10.668 2°41.399 258.2 14.2 256 11.5
2005-10-21 07:31:08 51°10.663 2°41.369 258.1 14.2 256 11.5
2005-10-21 07:31:13 51°10.658 2°41.338 258.1 14.2 255 11.5
2005-10-21 07:31:18 51°10.653 2°41.307 258.3 14.2 256 11.4
2005-10-21 07:31:23 51°10.649 2°41.277 258.3 14.2 256 11.5
2005-10-21 07:31:28 51°10.644 2°41.247 258.1 14.2 256 11.6
2005-10-21 07:31:33 51°10.639 2°41.217 258.1 14.2 255 11.5
2005-10-21 07:31:38 51°10.634 2°41.186 257.8 14.2 256 11.5
2005-10-21 07:31:43 51°10.629 2°41.156 258 14.2 256 11.5
2005-10-21 07:31:48 51°10.624 2°41.126 258.3 14.2 256 11.5
2005-10-21 07:31:53 51°10.619 2°41.095 258.3 14.3 256 11.5
2005-10-21 07:31:58 51°10.614 2°41.065 258.3 14.2 256 11.5
2005-10-21 07:32:03 51°10.609 2°41.034 258 14.2 255 11.5
2005-10-21 07:32:08 51°10.604 2°41.004 257.8 14.2 255 11.6
2005-10-21 07:32:13 51°10.599 2°40.974 257.7 14.2 255 11.5
2005-10-21 07:32:18 51°10.595 2°40.944 258 14.3 256 11.6
2005-10-21 07:32:23 51°10.59 2°40.913 258.2 14.2 256 11.5
2005-10-21 07:32:28 51°10.585 2°40.883 258.2 14.2 256 11.6
2005-10-21 07:32:33 51°10.58 2°40.852 258.2 14.2 256 11.6
2005-10-21 07:32:37 51°10.576 2°40.828 258.1 14.2 256 11.6
2005-10-21 07:32:43 51°10.57 2°40.792 257.8 14.2 255 11.6
2005-10-21 07:32:48 51°10.565 2°40.761 257.8 14.2 255 11.7
2005-10-21 07:32:53 51°10.56 2°40.731 257.8 14.2 255 11.7
2005-10-21 07:32:57 51°10.556 2°40.706 257.8 14.2 255 11.8
2005-10-21 07:33:03 51°10.55 2°40.67 257.8 14.2 255 11.7
2005-10-21 07:33:08 51°10.545 2°40.64 257.8 14.2 256 11.7
2005-10-21 07:33:13 51°10.54 2°40.609 257.7 14.2 256 11.7
2005-10-21 07:33:18 51°10.536 2°40.579 258 14.2 256 11.8
2005-10-21 07:33:23 51°10.531 2°40.548 258.2 14.2 256 11.9
2005-10-21 07:33:28 51°10.526 2°40.518 258.5 14.3 256 11.9
2005-10-21 07:33:33 51°10.521 2°40.487 258.5 14.3 256 11.9
2005-10-21 07:33:38 51°10.517 2°40.456 258.4 14.3 256 12
2005-10-21 07:33:43 51°10.512 2°40.426 258.4 14.3 256 12
2005-10-21 07:33:48 51°10.507 2°40.395 258.5 14.3 256 12.1
2005-10-21 07:33:53 51°10.503 2°40.365 258.3 14.3 256 12.1
2005-10-21 07:33:58 51°10.498 2°40.334 258.3 14.3 256 12.2
2005-10-21 07:34:03 51°10.493 2°40.304 258.3 14.3 256 12.2
2005-10-21 07:34:08 51°10.488 2°40.273 258.2 14.3 256 12.3
2005-10-21 07:34:13 51°10.483 2°40.243 257.8 14.3 256 12.3
2005-10-21 07:34:17 51°10.479 2°40.219 257.6 14.3 255 12.4
2005-10-21 07:34:23 51°10.473 2°40.182 257.6 14.3 256 12.4
2005-10-21 07:34:28 51°10.468 2°40.152 257.6 14.3 256 12.4
2005-10-21 07:34:33 51°10.463 2°40.121 257.7 14.3 256 12.5
2005-10-21 07:34:38 51°10.458 2°40.091 258.1 14.3 256 12.5
2005-10-21 07:34:43 51°10.454 2°40.06 258.3 14.3 256 12.5
2005-10-21 07:34:48 51°10.449 2°40.029 258.6 14.2 256 12.6
2005-10-21 07:34:53 51°10.444 2°39.999 258.5 14.2 256 12.6
2005-10-21 07:34:57 51°10.441 2°39.974 258.2 14.3 256 12.7
2005-10-21 07:35:03 51°10.435 2°39.938 258.2 14.2 256 12.7
2005-10-21 07:35:08 51°10.43 2°39.907 258.3 14.2 256 12.7
2005-10-21 07:35:13 51°10.425 2°39.876 258.4 14.3 256 12.8
2005-10-21 07:35:17 51°10.422 2°39.852 258.4 14.3 256 12.8
2005-10-21 07:35:23 51°10.416 2°39.815 258.5 14.3 256 12.8
2005-10-21 07:35:28 51°10.412 2°39.785 258.5 14.3 256 12.9
2005-10-21 07:35:33 51°10.407 2°39.754 258.5 14.3 256 13
2005-10-21 07:35:37 51°10.403 2°39.73 258.5 14.3 256 13
2005-10-21 07:35:43 51°10.397 2°39.693 258.4 14.3 256 13.1
2005-10-21 07:35:48 51°10.393 2°39.662 258.4 14.3 256 13.1
2005-10-21 07:35:53 51°10.388 2°39.632 258.3 14.3 256 13.2
2005-10-21 07:35:57 51°10.384 2°39.607 258.3 14.3 256 13.2
2005-10-21 07:36:03 51°10.378 2°39.57 258.1 14.3 256 13.2
2005-10-21 07:36:08 51°10.373 2°39.54 258.1 14.3 256 13.3
2005-10-21 07:36:13 51°10.369 2°39.509 258.1 14.3 256 13.3
2005-10-21 07:36:17 51°10.365 2°39.485 258 14.3 256 13.4
2005-10-21 07:36:23 51°10.359 2°39.448 258 14.3 256 13.5
2005-10-21 07:36:28 51°10.354 2°39.417 257.8 14.3 256 13.5
2005-10-21 07:36:33 51°10.349 2°39.387 257.8 14.3 256 13.5
2005-10-21 07:36:38 51°10.344 2°39.356 258 14.2 256 13.6
2005-10-21 07:36:43 51°10.34 2°39.326 258.3 14.3 256 13.7
2005-10-21 07:36:48 51°10.335 2°39.295 258.6 14.3 256 13.9
2005-10-21 07:36:53 51°10.33 2°39.264 258.5 14.3 256 14.1
2005-10-21 07:36:57 51°10.327 2°39.24 258.5 14.3 257 14.1
2005-10-21 07:37:03 51°10.321 2°39.203 258.5 14.3 256 14
2005-10-21 07:37:08 51°10.316 2°39.173 258.4 14.3 256 14.1
2005-10-21 07:37:13 51°10.312 2°39.142 258.4 14.3 257 14.4
2005-10-21 07:37:17 51°10.308 2°39.118 258.5 14.3 256 14.3
2005-10-21 07:37:23 51°10.302 2°39.081 258.4 14.3 256 14.3
2005-10-21 07:37:28 51°10.298 2°39.05 258.3 14.3 256 14.3
2005-10-21 07:37:33 51°10.293 2°39.02 258.2 14.3 256 14.2
2005-10-21 07:37:38 51°10.288 2°38.989 258.2 14.3 256 14.4
2005-10-21 07:37:43 51°10.283 2°38.958 258.2 14.3 256 14.2
2005-10-21 07:37:48 51°10.279 2°38.928 258.2 14.3 256 14.2
2005-10-21 07:37:53 51°10.274 2°38.897 258.3 14.3 256 14.3
2005-10-21 07:37:57 51°10.27 2°38.873 258.3 14.2 256 14.4
2005-10-21 07:38:03 51°10.265 2°38.836 258.3 14.3 256 14.4
2005-10-21 07:38:08 51°10.26 2°38.805 258.3 14.3 256 14.7
2005-10-21 07:38:13 51°10.255 2°38.775 258.3 14.3 256 14.8
2005-10-21 07:38:17 51°10.252 2°38.75 258.3 14.3 256 14.5
2005-10-21 07:38:23 51°10.246 2°38.713 258.2 14.3 256 14.6
2005-10-21 07:38:28 51°10.241 2°38.683 258.2 14.2 256 14.7
2005-10-21 07:38:33 51°10.236 2°38.652 258.1 14.3 256 14.8
2005-10-21 07:38:37 51°10.232 2°38.628 258.1 14.3 256 14.9
2005-10-21 07:38:43 51°10.227 2°38.591 257.9 14.3 256 15
2005-10-21 07:38:48 51°10.222 2°38.561 257.7 14.3 256 14.9
2005-10-21 07:38:53 51°10.217 2°38.53 258.1 14.3 256 14.6
2005-10-21 07:38:58 51°10.212 2°38.499 258.3 14.3 256 14.8
2005-10-21 07:39:03 51°10.208 2°38.469 258.4 14.3 256 15
2005-10-21 07:39:08 51°10.203 2°38.438 258.4 14.3 256 14.9
2005-10-21 07:39:13 51°10.198 2°38.408 258.4 14.3 256 14.7
2005-10-21 07:39:18 51°10.193 2°38.377 258.2 14.3 256 14.7
2005-10-21 07:39:23 51°10.189 2°38.347 257.8 14.3 256 14.6
2005-10-21 07:39:28 51°10.184 2°38.316 257.8 14.3 256 14.9
2005-10-21 07:39:33 51°10.179 2°38.285 257.9 14.3 256 14.8
2005-10-21 07:39:37 51°10.176 2°38.261 258.3 14.3 257 14.8
2005-10-21 07:39:43 51°10.17 2°38.225 258.6 14.3 257 15
2005-10-21 07:39:48 51°10.165 2°38.194 258.6 14.3 256 15.1
2005-10-21 07:39:53 51°10.161 2°38.163 258.6 14.3 256 15.4
2005-10-21 07:39:58 51°10.156 2°38.133 258.4 14.3 256 15.6
2005-10-21 07:40:03 51°10.151 2°38.102 258.3 14.3 256 15.4
2005-10-21 07:40:08 51°10.146 2°38.072 258.2 14.3 256 15.4
2005-10-21 07:40:13 51°10.142 2°38.041 258.4 14.3 257 15.5
2005-10-21 07:40:18 51°10.137 2°38.011 258.9 14.3 257 15.2
2005-10-21 07:40:23 51°10.133 2°37.98 258.4 14.3 256 15.1
2005-10-21 07:40:28 51°10.128 2°37.95 258.4 14.3 256 15.7
2005-10-21 07:40:33 51°10.123 2°37.919 258.4 14.3 256 15.4
2005-10-21 07:40:37 51°10.119 2°37.895 258.4 14.3 256 15.6
2005-10-21 07:40:43 51°10.114 2°37.858 258.6 14.2 256 16
2005-10-21 07:40:48 51°10.109 2°37.828 258.6 14.2 256 16.1
2005-10-21 07:40:53 51°10.105 2°37.797 258.7 14.3 256 15.5
2005-10-21 07:40:57 51°10.101 2°37.773 258.7 14.3 256 16.1
2005-10-21 07:41:03 51°10.095 2°37.736 258.6 14.2 256 16.1
2005-10-21 07:41:08 51°10.09 2°37.706 258.2 14.2 256 16.2
2005-10-21 07:41:13 51°10.085 2°37.675 257.8 14.2 256 16.3
2005-10-21 07:41:17 51°10.082 2°37.651 257.6 14.3 256 16.3
2005-10-21 07:41:23 51°10.076 2°37.614 257.9 14.3 256 16.3
2005-10-21 07:41:28 51°10.071 2°37.584 258.2 14.2 256 16.4
2005-10-21 07:41:33 51°10.067 2°37.554 258.4 14.3 257 16.5
2005-10-21 07:41:38 51°10.062 2°37.523 258.6 14.2 256 16.4
2005-10-21 07:41:43 51°10.057 2°37.493 258.6 14.2 256 16.5
2005-10-21 07:41:48 51°10.053 2°37.462 258.3 14.2 256 16.4
2005-10-21 07:41:53 51°10.048 2°37.432 257.9 14.2 256 16.6
2005-10-21 07:41:57 51°10.044 2°37.407 257.9 14.2 256 16.6
2005-10-21 07:42:03 51°10.038 2°37.371 258.1 14.2 256 16.6
2005-10-21 07:42:08 51°10.034 2°37.34 258.4 14.2 257 16.6
2005-10-21 07:42:13 51°10.029 2°37.31 258.8 14.2 257 16.6
2005-10-21 07:42:17 51°10.026 2°37.285 258.9 14.2 257 16.6
2005-10-21 07:42:23 51°10.02 2°37.249 258.8 14.2 256 16.5
2005-10-21 07:42:28 51°10.015 2°37.218 258.4 14.2 256 16.5
2005-10-21 07:42:33 51°10.011 2°37.188 258.3 14.2 256 16.4
2005-10-21 07:42:37 51°10.007 2°37.163 258 14.3 256 16.6
2005-10-21 07:42:43 51°10.001 2°37.126 257.9 14.3 256 16.5
2005-10-21 07:42:48 51°9.997 2°37.096 257.9 14.3 256 16.6
2005-10-21 07:42:53 51°9.993 2°37.065 258 14.3 257 16.7
2005-10-21 07:42:57 51°9.99 2°37.04 259.7 14.3 261 16.7
2005-10-21 07:43:03 51°9.987 2°37.003 262.8 14.2 263 16.7
2005-10-21 07:43:08 51°9.986 2°36.972 265.4 14.2 263 16.8
2005-10-21 07:43:13 51°9.984 2°36.94 267.2 14.3 265 16.8
2005-10-21 07:43:17 51°9.983 2°36.915 268.5 14.3 266 16.8
2005-10-21 07:43:23 51°9.982 2°36.877 269.3 14.3 267 16.6
2005-10-21 07:43:28 51°9.982 2°36.846 270.6 14.3 268 16.8
2005-10-21 07:43:33 51°9.982 2°36.814 271.8 14.3 269 16.7
2005-10-21 07:43:38 51°9.982 2°36.783 272.7 14.3 269 16.8
2005-10-21 07:43:43 51°9.982 2°36.751 273.4 14.3 270 17
2005-10-21 07:43:48 51°9.982 2°36.719 273.7 14.3 270 16.9
2005-10-21 07:43:53 51°9.982 2°36.688 273.9 14.3 270 16.6
2005-10-21 07:43:58 51°9.982 2°36.656 273.9 14.3 270 16.8
2005-10-21 07:44:03 51°9.982 2°36.625 273.6 14.3 270 16.6
2005-10-21 07:44:08 51°9.983 2°36.593 274.1 14.3 272 16.7
2005-10-21 07:44:13 51°9.984 2°36.562 275.2 14.3 272 16.5
2005-10-21 07:44:18 51°9.985 2°36.53 275.8 14.3 272 16.8
2005-10-21 07:44:23 51°9.986 2°36.499 276.5 14.3 272 16.8
2005-10-21 07:44:28 51°9.987 2°36.467 277 14.3 272 16.7
2005-10-21 07:44:33 51°9.988 2°36.436 277.1 14.2 273 16.6
2005-10-21 07:44:37 51°9.989 2°36.411 277 14.2 273 16.6
2005-10-21 07:44:43 51°9.99 2°36.373 276.5 14.3 272 16.7
2005-10-21 07:44:48 51°9.991 2°36.342 276.3 14.3 272 16.8
2005-10-21 07:44:53 51°9.992 2°36.31 275.9 14.2 272 16.8
2005-10-21 07:44:58 51°9.992 2°36.279 275.8 14.2 272 16.9
2005-10-21 07:45:03 51°9.993 2°36.248 276 14.2 272 16.9
2005-10-21 07:45:08 51°9.994 2°36.216 276.1 14.2 272 16.9
2005-10-21 07:45:13 51°9.995 2°36.185 276.3 14.2 272 16.9
2005-10-21 07:45:17 51°9.996 2°36.16 276.3 14.2 273 17
2005-10-21 07:45:23 51°9.997 2°36.122 276.2 14.2 273 17
2005-10-21 07:45:28 51°9.999 2°36.091 277.2 14.2 275 17
2005-10-21 07:45:33 51°10.001 2°36.06 279.2 14.3 276 16.9
2005-10-21 07:45:38 51°10.004 2°36.029 280.7 14.2 278 16.7
2005-10-21 07:45:43 51°10.008 2°35.998 282.9 14.2 281 16.6
2005-10-21 07:45:48 51°10.013 2°35.968 286.1 14.2 283 16.6
2005-10-21 07:45:53 51°10.019 2°35.938 288.6 14.1 286 16.5
2005-10-21 07:45:57 51°10.024 2°35.915 291.2 14.1 287 16.1
2005-10-21 07:46:03 51°10.035 2°35.882 296.2 13.9 295 16
2005-10-21 07:46:08 51°10.045 2°35.857 301.4 13.8 297 15.7
2005-10-21 07:46:13 51°10.056 2°35.834 307.3 13.5 307 15.1
2005-10-21 07:46:17 51°10.066 2°35.817 313.7 13.4 309 14.5
2005-10-21 07:46:23 51°10.083 2°35.796 320.8 13 320 14
2005-10-21 07:46:28 51°10.099 2°35.782 328.4 12.9 323 13.5
2005-10-21 07:46:33 51°10.115 2°35.771 336.4 12.5 336 12
2005-10-21 07:46:38 51°10.131 2°35.765 344.8 12.4 339 11.8
2005-10-21 07:46:43 51°10.148 2°35.759 352.4 12.2 349 10.8
2005-10-21 07:46:48 51°10.165 2°35.755 356.2 12.3 349 10.4
2005-10-21 07:46:53 51°10.182 2°35.751 358.1 12.3 351 10.2
2005-10-21 07:46:57 51°10.196 2°35.75 -999 12.4 354 9.9
2005-10-21 07:47:03 51°10.216 2°35.749 1.7 12.3 357 9.8
2005-10-21 07:47:08 51°10.233 2°35.752 6.1 12.3 357 9.7
2005-10-21 07:47:13 51°10.249 2°35.757 11.6 12.1 10 9.6
2005-10-21 07:47:18 51°10.265 2°35.766 16.1 12 16 9.6
2005-10-21 07:47:23 51°10.28 2°35.777 23.4 11.9 20 9.4
2005-10-21 07:47:28 51°10.294 2°35.79 29.9 11.9 28 9.4
2005-10-21 07:47:33 51°10.308 2°35.804 34.1 11.9 30 9.6
2005-10-21 07:47:38 51°10.322 2°35.818 36.8 11.9 30 9.7
2005-10-21 07:47:43 51°10.336 2°35.833 39.1 11.9 30 9.9
2005-10-21 07:47:48 51°10.349 2°35.849 40.6 12.1 36 9.8
2005-10-21 07:47:53 51°10.363 2°35.866 41.6 12.1 37 9.6
2005-10-21 07:47:58 51°10.376 2°35.882 42.9 12.1 37 9.8
2005-10-21 07:48:03 51°10.389 2°35.899 43.5 12.2 38 9.6
2005-10-21 07:48:08 51°10.402 2°35.916 44.1 12.2 39 9.6
2005-10-21 07:48:13 51°10.416 2°35.932 44.2 12.2 39 9.9
2005-10-21 07:48:17 51°10.426 2°35.945 43.6 12.2 37 9.8
2005-10-21 07:48:23 51°10.443 2°35.964 42.2 12.2 36 9.7
2005-10-21 07:48:28 51°10.457 2°35.979 41.3 12.2 36 9.8
2005-10-21 07:48:33 51°10.471 2°35.994 39.8 12.3 33 9.5
2005-10-21 07:48:37 51°10.483 2°36.006 39.2 12.3 33 9.7
2005-10-21 07:48:43 51°10.5 2°36.024 38.9 12.3 33 9.6
2005-10-21 07:48:48 51°10.514 2°36.038 38.4 12.3 33 9.6
2005-10-21 07:48:53 51°10.528 2°36.053 38.4 12.3 33 9.7
2005-10-21 07:48:58 51°10.542 2°36.069 38.6 12.3 33 9.4
2005-10-21 07:49:03 51°10.556 2°36.084 39.4 12.2 34 9.6
2005-10-21 07:49:08 51°10.57 2°36.099 39.9 12.2 34 9.5
2005-10-21 07:49:13 51°10.584 2°36.114 40 12.2 34 9.6
2005-10-21 07:49:17 51°10.596 2°36.127 40 12.3 34 9.6
2005-10-21 07:49:23 51°10.613 2°36.144 39.9 12.2 33 9.3
2005-10-21 07:49:28 51°10.627 2°36.159 38.9 12.3 32 9.6
2005-10-21 07:49:33 51°10.642 2°36.173 38.1 12.3 32 9.5
2005-10-21 07:49:38 51°10.656 2°36.187 37.2 12.3 31 9.6
2005-10-21 07:49:43 51°10.671 2°36.201 36.8 12.3 31 9.6
2005-10-21 07:49:48 51°10.686 2°36.214 36.4 12.3 31 9.7
2005-10-21 07:49:53 51°10.701 2°36.228 36.2 12.3 31 9.8
2005-10-21 07:49:58 51°10.715 2°36.242 36.2 12.4 31 10
2005-10-21 07:50:03 51°10.73 2°36.256 36.7 12.4 31 9.9
2005-10-21 07:50:08 51°10.744 2°36.271 36.8 12.4 32 9.9
2005-10-21 07:50:13 51°10.759 2°36.285 37.4 12.4 31 10
2005-10-21 07:50:18 51°10.774 2°36.299 37.7 12.4 31 10.3
2005-10-21 07:50:23 51°10.788 2°36.313 37.6 12.4 31 10.2
2005-10-21 07:50:28 51°10.803 2°36.327 37.3 12.4 31 10.3
2005-10-21 07:50:33 51°10.818 2°36.341 37.4 12.4 31 10.3
2005-10-21 07:50:38 51°10.833 2°36.356 37.1 12.4 31 10.2
2005-10-21 07:50:43 51°10.847 2°36.369 37.1 12.4 31 10.2
2005-10-21 07:50:48 51°10.862 2°36.384 36.9 12.4 31 10.6
2005-10-21 07:50:53 51°10.877 2°36.398 37 12.4 31 10.6
2005-10-21 07:50:57 51°10.888 2°36.409 37.1 12.3 32 10.7
2005-10-21 07:51:03 51°10.906 2°36.426 37.4 12.3 31 10.7
2005-10-21 07:51:08 51°10.92 2°36.44 37.5 12.3 31 10.6
2005-10-21 07:51:13 51°10.935 2°36.454 37.6 12.3 32 10.8
2005-10-21 07:51:18 51°10.95 2°36.468 37.7 12.3 32 10.7
2005-10-21 07:51:23 51°10.964 2°36.482 37.7 12.3 31 10.9
2005-10-21 07:51:28 51°10.979 2°36.496 37.3 12.3 31 10.8
2005-10-21 07:51:33 51°10.994 2°36.51 37 12.3 31 10.9
2005-10-21 07:51:38 51°11.009 2°36.524 36.8 12.4 31 10.9
2005-10-21 07:51:43 51°11.023 2°36.538 36.8 12.4 31 11
2005-10-21 07:51:48 51°11.038 2°36.552 36.9 12.3 31 11
2005-10-21 07:51:53 51°11.052 2°36.566 36.9 12.4 31 11
2005-10-21 07:51:58 51°11.067 2°36.579 37.2 12.3 31 11.1
2005-10-21 07:52:03 51°11.082 2°36.594 37.4 12.3 31 11.2
2005-10-21 07:52:08 51°11.097 2°36.607 37.6 12.3 30 11.1
2005-10-21 07:52:13 51°11.111 2°36.621 37.3 12.3 31 11.2
2005-10-21 07:52:17 51°11.123 2°36.633 37.3 12.3 31 11.3
2005-10-21 07:52:23 51°11.14 2°36.649 37.3 12.3 31 11.3
2005-10-21 07:52:28 51°11.155 2°36.663 37.1 12.3 31 11.3
2005-10-21 07:52:33 51°11.17 2°36.677 37.1 12.3 31 11.1
2005-10-21 07:52:38 51°11.184 2°36.691 37.3 12.3 31 11.3
2005-10-21 07:52:43 51°11.199 2°36.705 37.3 12.3 31 11.2
2005-10-21 07:52:48 51°11.214 2°36.719 37.4 12.3 31 11.4
2005-10-21 07:52:53 51°11.228 2°36.733 37.7 12.3 31 11.4
2005-10-21 07:52:57 51°11.24 2°36.744 38 12.3 32 11.4
2005-10-21 07:53:03 51°11.257 2°36.761 37.8 12.3 32 11.4
2005-10-21 07:53:08 51°11.272 2°36.775 37.8 12.3 31 11.5
2005-10-21 07:53:13 51°11.286 2°36.789 37.5 12.3 30 11.4
2005-10-21 07:53:18 51°11.301 2°36.803 37 12.3 30 11.5
2005-10-21 07:53:23 51°11.316 2°36.816 37 12.3 30 11.7
2005-10-21 07:53:28 51°11.331 2°36.83 36.6 12.3 30 11.6
2005-10-21 07:53:33 51°11.345 2°36.844 36.9 12.2 31 11.6
2005-10-21 07:53:38 51°11.36 2°36.857 37.3 12.2 31 11.7
2005-10-21 07:53:43 51°11.374 2°36.871 37.2 12.3 31 11.7
2005-10-21 07:53:48 51°11.389 2°36.885 37.5 12.3 31 11.7
2005-10-21 07:53:53 51°11.404 2°36.899 37.2 12.3 30 11.6
2005-10-21 07:53:57 51°11.416 2°36.91 37.3 12.3 31 11.7
2005-10-21 07:54:03 51°11.433 2°36.926 37.2 12.2 31 11.7
2005-10-21 07:54:08 51°11.448 2°36.94 37.3 12.2 31 11.8
2005-10-21 07:54:13 51°11.462 2°36.954 37.4 12.2 31 11.8
2005-10-21 07:54:18 51°11.477 2°36.968 37.4 12.3 31 11.8
2005-10-21 07:54:23 51°11.492 2°36.982 37.6 12.3 31 11.8
2005-10-21 07:54:28 51°11.506 2°36.996 37.6 12.2 31 11.7
2005-10-21 07:54:33 51°11.521 2°37.009 37.5 12.2 31 11.8
2005-10-21 07:54:37 51°11.533 2°37.02 37.1 12.2 30 11.9
2005-10-21 07:54:43 51°11.55 2°37.036 37 12.2 30 11.8
2005-10-21 07:54:48 51°11.565 2°37.05 37 12.2 30 11.9
2005-10-21 07:54:53 51°11.58 2°37.064 36.6 12.2 30 11.7
2005-10-21 07:54:57 51°11.591 2°37.074 37.1 12.2 31 11.7
2005-10-21 07:55:03 51°11.609 2°37.09 37.1 12.2 31 11.8
2005-10-21 07:55:08 51°11.624 2°37.104 36.7 12.2 31 11.8
2005-10-21 07:55:13 51°11.639 2°37.118 37.2 12.2 29 11.8
2005-10-21 07:55:17 51°11.65 2°37.129 36.9 12.2 30 11.7
2005-10-21 07:55:23 51°11.668 2°37.145 37.1 12.2 30 11.8
2005-10-21 07:55:28 51°11.682 2°37.158 37.2 12.2 30 11.7
2005-10-21 07:55:33 51°11.697 2°37.172 37 12.2 30 11.8
2005-10-21 07:55:37 51°11.709 2°37.182 37 12.2 30 11.7
2005-10-21 07:55:43 51°11.727 2°37.199 37 12.2 30 11.7
2005-10-21 07:55:48 51°11.741 2°37.212 37 12.2 30 11.7
2005-10-21 07:55:53 51°11.756 2°37.226 37 12.2 30 11.7
2005-10-21 07:55:58 51°11.77 2°37.239 37 12.2 30 11.6
2005-10-21 07:56:03 51°11.785 2°37.253 37 12.2 30 11.7
2005-10-21 07:56:08 51°11.8 2°37.266 37 12.2 30 11.6
2005-10-21 07:56:13 51°11.814 2°37.28 36.8 12.2 30 11.8
2005-10-21 07:56:18 51°11.829 2°37.293 37 12.2 30 11.7
2005-10-21 07:56:23 51°11.844 2°37.307 37.1 12.2 30 11.7
2005-10-21 07:56:28 51°11.859 2°37.321 37.3 12.2 30 11.6
2005-10-21 07:56:33 51°11.873 2°37.334 37.4 12.2 30 11.7
2005-10-21 07:56:38 51°11.887 2°37.348 37.5 12.2 30 11.6
2005-10-21 07:56:43 51°11.902 2°37.362 37.5 12.2 30 11.6
2005-10-21 07:56:48 51°11.917 2°37.375 37.4 12.2 30 11.7
2005-10-21 07:56:53 51°11.931 2°37.389 37.4 12.2 30 11.5
2005-10-21 07:56:58 51°11.946 2°37.402 37.3 12.2 30 11.5
2005-10-21 07:57:03 51°11.961 2°37.416 37.2 12.2 31 11.5
2005-10-21 07:57:08 51°11.975 2°37.43 37.4 12.2 30 11.4
2005-10-21 07:57:13 51°11.99 2°37.443 37.5 12.2 30 11.5
2005-10-21 07:57:18 51°12.004 2°37.457 37.5 12.2 31 11.5
2005-10-21 07:57:23 51°12.019 2°37.471 37.7 12.2 31 11.5
2005-10-21 07:57:28 51°12.033 2°37.485 37.7 12.2 31 11.5
2005-10-21 07:57:33 51°12.048 2°37.498 37.5 12.2 30 11.5
2005-10-21 07:57:37 51°12.06 2°37.509 37 12.2 30 11.5
2005-10-21 07:57:43 51°12.078 2°37.524 37 12.2 30 11.5
2005-10-21 07:57:48 51°12.092 2°37.538 36.8 12.2 30 11.4
2005-10-21 07:57:53 51°12.107 2°37.551 36.8 12.2 30 11.4
2005-10-21 07:57:57 51°12.119 2°37.562 36.9 12.2 30 11.5
2005-10-21 07:58:03 51°12.136 2°37.579 37.2 12.2 30 11.4
2005-10-21 07:58:08 51°12.151 2°37.593 37.7 12.2 31 11.5
2005-10-21 07:58:13 51°12.165 2°37.607 37.9 12.1 31 11.3
2005-10-21 07:58:17 51°12.177 2°37.618 38.1 12.2 31 11.3
2005-10-21 07:58:23 51°12.194 2°37.634 37.8 12.2 31 11.3
2005-10-21 07:58:28 51°12.209 2°37.647 37.8 12.3 30 11.4
2005-10-21 07:58:33 51°12.223 2°37.661 37.3 12.2 30 11.4
2005-10-21 07:58:37 51°12.235 2°37.672 37.1 12.2 30 11.4
2005-10-21 07:58:43 51°12.253 2°37.688 36.8 12.2 30 11.4
2005-10-21 07:58:48 51°12.267 2°37.702 37 12.2 30 11.4
2005-10-21 07:58:53 51°12.282 2°37.715 37.2 12.2 30 11.4
2005-10-21 07:58:57 51°12.294 2°37.726 37.1 12.2 30 11.4
2005-10-21 07:59:03 51°12.311 2°37.742 37.4 12.2 30 11.5
2005-10-21 07:59:08 51°12.326 2°37.755 37.5 12.2 30 11.4
2005-10-21 07:59:13 51°12.341 2°37.769 37.3 12.2 30 11.5
2005-10-21 07:59:17 51°12.352 2°37.78 37.1 12.2 30 11.5
2005-10-21 07:59:23 51°12.37 2°37.796 37.5 12.2 30 11.5
2005-10-21 07:59:28 51°12.384 2°37.81 37 12.2 30 11.5
2005-10-21 07:59:33 51°12.399 2°37.823 37.4 12.2 30 11.6
2005-10-21 07:59:37 51°12.41 2°37.834 37.6 12.2 31 11.5
2005-10-21 07:59:43 51°12.428 2°37.85 37.4 12.2 31 11.6
2005-10-21 07:59:48 51°12.443 2°37.864 37.1 12.2 30 11.4
2005-10-21 07:59:53 51°12.458 2°37.877 37 12.2 29 11.6
2005-10-21 07:59:58 51°12.472 2°37.891 37 12.2 30 11.5
2005-10-21 08:00:03 51°12.487 2°37.904 36.9 12.3 30 11.6
2005-10-21 08:00:08 51°12.502 2°37.918 37 12.2 30 11.6
2005-10-21 08:00:13 51°12.516 2°37.931 37.1 12.2 30 11.7
2005-10-21 08:00:17 51°12.528 2°37.942 37.3 12.2 30 11.7
2005-10-21 08:00:23 51°12.546 2°37.958 37.4 12.2 30 11.7
2005-10-21 08:00:28 51°12.56 2°37.972 37.2 12.3 30 11.7
2005-10-21 08:00:33 51°12.575 2°37.986 37.1 12.2 30 11.7
2005-10-21 08:00:38 51°12.59 2°37.999 37.1 12.3 30 11.7
2005-10-21 08:00:43 51°12.605 2°38.013 37.1 12.3 29 11.7
2005-10-21 08:00:48 51°12.619 2°38.026 37.1 12.2 30 11.9
2005-10-21 08:00:53 51°12.634 2°38.04 37.2 12.3 30 11.8
2005-10-21 08:00:57 51°12.646 2°38.051 37.1 12.2 30 11.8
2005-10-21 08:01:03 51°12.663 2°38.067 37 12.3 30 11.8
2005-10-21 08:01:08 51°12.678 2°38.08 37.3 12.3 30 11.9
2005-10-21 08:01:13 51°12.693 2°38.095 37 12.3 30 11.8
2005-10-21 08:01:18 51°12.707 2°38.108 37.1 12.3 30 11.7
2005-10-21 08:01:23 51°12.722 2°38.122 37.1 12.3 30 11.8
2005-10-21 08:01:28 51°12.737 2°38.135 37 12.2 30 11.8